This is the latest recevied weather packets stored in our database for station/object AI5YA-13. If no packets are shown the sender has not sent any weather packets the latest 10 day(s).
| Time | Temp. | Humidity | Pressure | Rain* | Wind** | Luminosity | Snow |
|---|---|---|---|---|---|---|---|
| 1777638316 | 11.67° C | 94% | 1013.9 hPa | 0 mm | - | 0 W/m² | - |
| 1777638011 | 11.67° C | 94% | 1014.1 hPa | 0 mm | - | 0 W/m² | - |
| 1777637708 | 11.67° C | 94% | 1014 hPa | 0 mm | - | 0 W/m² | - |
| 1777637405 | 11.67° C | 94% | 1014.1 hPa | 0 mm | - | 0 W/m² | - |
| 1777637102 | 11.67° C | 94% | 1013.9 hPa | 1.78 mm | - | 0 W/m² | - |
| 1777636797 | 12.22° C | 94% | 1014.1 hPa | 1.78 mm | - | 0 W/m² | - |
| 1777636494 | 12.22° C | 94% | 1014 hPa | 0 mm | - | 0 W/m² | - |
| 1777636190 | 12.22° C | 94% | 1014 hPa | 1.27 mm | - | 0 W/m² | - |
| 1777635879 | 12.22° C | 94% | 1013.7 hPa | 1.27 mm | - | 0 W/m² | - |
| 1777635576 | 12.22° C | 94% | 1013.9 hPa | 1.78 mm | - | 0 W/m² | - |
| 1777635273 | 12.22° C | 94% | 1013.9 hPa | 1.78 mm | - | 0 W/m² | - |
| 1777634969 | 12.22° C | 94% | 1013.7 hPa | 3.05 mm | - | 0 W/m² | - |
| 1777634666 | 12.22° C | 94% | 1013.5 hPa | 4.32 mm | - | 0 W/m² | - |
| 1777634364 | 12.22° C | 94% | 1013.5 hPa | 4.83 mm | - | 0 W/m² | - |
| 1777634060 | 12.22° C | 94% | 1013.7 hPa | 4.83 mm | - | 0 W/m² | - |
| 1777633757 | 12.22° C | 94% | 1014.3 hPa | 6.1 mm | - | 0 W/m² | - |
| 1777633455 | 12.22° C | 94% | 1014.1 hPa | 8.89 mm | - | 0 W/m² | - |
| 1777633152 | 12.22° C | 94% | 1014.3 hPa | 8.89 mm | - | 0 W/m² | - |
| 1777632849 | 12.22° C | 93% | 1014.4 hPa | 6.1 mm | - | 0 W/m² | - |
| 1777632544 | 12.22° C | 93% | 1014.3 hPa | 6.1 mm | - | 0 W/m² | - |
| 1777632242 | 12.22° C | 93% | 1014.7 hPa | 8.89 mm | - | 0 W/m² | - |
| 1777631939 | 12.22° C | 93% | 1014.5 hPa | 10.67 mm | - | 0 W/m² | - |
| 1777631637 | 12.22° C | 93% | 1014.4 hPa | 10.16 mm | - | 0 W/m² | - |
| 1777631334 | 12.22° C | 93% | 1014.8 hPa | 7.11 mm | - | 0 W/m² | - |
| 1777631031 | 12.22° C | 93% | 1015.1 hPa | 4.83 mm | - | 0 W/m² | - |
* Rain latest hour (hover to see other rain measurements)
** Current wind speed in m/s (hover to see current wind gust speed)